OBJECT G, 49321

Orbit data source: Space-Track

You're viewing an Uncataloged Satellite

Recently launched and/or uncataloged satellites may have evolving metadata. Metadata may include but not limited to: Owner, Maufacturer, Bus, Motor, and Mission.

OBJECT G, 49321 is a Chinese satellite in SSO that was launched on Thu, 14 Oct 2021 UTC via a CHANG ZHENG 2D launch vehicle from the Taiyaun Space Center, China (TSC). Unknown objects in Earth's orbit typically refer to objects detected orbiting the Earth but have not yet been identified or cataloged. These objects could be anything from previously untracked satellites, spent rocket stages, debris from satellite collisions, or even natural meteoroids temporarily captured by Earth's gravity.

Loading next visibility...
Identifier
49321, 2021-091G
Orbit
SSO
Country
Flag of CNCN / PRC
Related business
None
Manufacturer
Unknown
Mission
Non-operational Amateur Technology
Bus & Motor
Unknown
Mass
Unknown
Launch date (UTC)
2021-10-14 (5 years ago)
Launch vehicle
CHANG ZHENG 2D
Launch site
Taiyaun Space Center, China (TSC)
Object type
Unknown
Shape & HBR
Box + 1 Ant, 1.0 m
Radar Cross Section
0.351 m², Medium (>0.1 m² and < 1m²)

Expand to show TLE details & history
Last TLE update: 15 hours ago

TLE from 15 hours ago
0 OBJECT G
1 49321U 21091G   26172.90734880  .00013393  00000-0  87285-4 0  9992
2 49321  97.3631  37.5417 0001558 248.2583 111.8517 15.76034558262376
Epoch: 2026-06-21T21:46Z
TLE epoch observation values (Epoch: 2026-06-21T21:46:34.936Z)
Latitude
0.00002°
Longitude
160.79525°
Altitude
345.246 km
Speed
7.701 km/s
True Right ascension
02h 30m 10s
True Declination
0° 00' 00"
Sunlit
Object was in daylight at epoch
Visualization orbit readout
Latitude
Unknown
Longitude
Unknown
Altitude
Unknown
Speed
Unknown
Apparent Right ascension
Unknown
Apparent Declination
Unknown
Sunlit
N/A
Visualization observer readout
Local Sidereal Time
23:19:26
Azimuth
Unknown
Elevation
Unknown
Doppler factor
Unknown
Orbital elements
Apogee altitude
339.625 km
Perigee altitude
337.532 km
Semi-major axis
6,716.716 km
Eccentricity
0.00016
Inclination
97.3631°
RAAN
37.5417°
Arg. of periapsis
248.2583°
True anomaly
111.86827°
Mean anomaly
111.8517°
Eccentric anomaly
111.85998°
Mean motion
3.94283 °/min
Orbital period
91.31 mins
BSTAR
0.000087285
Loading maneuver chart data...
Computing Atmospheric mass density...
Loading historical data...
Loading historical data...
Loading historical data...
Loading historical data...
Loading historical data...
Loading historical data...
Loading historical data...

Documentation

Showing up to 5 results
|